Tracking 19219 objects as of 19-Jul-2018
HD Live streaming from Space Station
objects crossing your sky now

FENGYUN 1C DEB

Track FENGYUN 1C DEB now!
10-day predictions


NORAD ID: 31624
Int'l Code: 1999-025CAE
Perigee: 724.8 km
Apogee: 803.1 km
Inclination: 99.7 °
Period: 100.0 minutes
Semi major axis: 7134 km
RCS: 0.0067 m2 (small)
Launch date: May 10, 1999
Source: People's Republic of China (PRC)
Launch site: Taiyaun Space Center, China (TSC)

Note: This is SATELLITE DEBRIS
aabbcc
Your satellite tracking list
Your tracking list is empty




NASA's NSSDC Master Catalog

Two Line Element Set (TLE):
1 31624U 99025CAE 18199.93674861 +.00000905 +00000-0 +29669-3 0  9992
2 31624 099.6788 357.9500 0054854 271.5770 240.4132 14.40519871582954
Source of the keplerian elements: AFSPC